CW1248 Weather Reports


Display with metric or nautical units.
time (UTC)temp
F
wind
direction
speed
MPH
gust
MPH
rain 1hr
in
rain 24hr
in
rain mn
in
humidity
%
barometer
mb
20260502151003 52 280 7.0 16.0 0.00 0.00 0.00 46 1018.9
20260502150503 52 268 6.0 16.0 0.00 0.00 0.00 48 1018.9
20260502130508 40 291 4.0 10.0 0.00 0.00 0.00 66 1019.3
20260502123501 38 250 3.0 9.0 0.00 0.00 0.00 72 1019.4
20260502123022 37 241 2.0 9.0 0.00 0.00 0.00 72 1019.4
20260502122506 37 235 4.0 8.0 0.00 0.00 0.00 72 1019.3
20260502122004 37 234 4.0 10.0 0.00 0.00 0.00 73 1019.3
20260502121510 36 221 4.0 10.0 0.00 0.00 0.00 74 1019.3
20260502121005 36 242 5.0 8.0 0.00 0.00 0.00 74 1019.3
20260502120507 36 250 4.0 8.0 0.00 0.00 0.00 75 1019.3
20260502115506 35 225 5.0 9.0 0.00 0.00 0.00 74 1019.2
20260502115009 35 249 5.0 8.0 0.00 0.00 0.00 74 1019.2
20260502114508 35 235 4.0 8.0 0.00 0.00 0.00 73 1019.1
20260502114002 35 262 5.0 8.0 0.00 0.00 0.00 74 1019.1
20260502113504 35 250 4.0 8.0 0.00 0.00 0.00 74 1019.1
20260502113010 35 240 5.0 7.0 0.00 0.00 0.00 74 1019.1
20260502112502 35 240 4.0 7.0 0.00 0.00 0.00 74 1019.1
20260502112006 35 234 3.0 8.0 0.00 0.00 0.00 73 1019.1
20260502111522 35 273 4.0 8.0 0.00 0.00 0.00 73 1019.1
20260502111007 35 248 4.0 8.0 0.00 0.00 0.00 73 1019.0
20260502110504 35 228 4.0 9.0 0.00 0.00 0.00 73 1019.2
20260502110021 35 250 5.0 9.0 0.00 0.00 0.00 73 1019.2
20260502105507 35 221 5.0 8.0 0.00 0.00 0.00 74 1019.1
20260502105002 35 238 4.0 8.0 0.00 0.00 0.00 75 1019.1
20260502104511 35 241 4.0 8.0 0.00 0.00 0.00 75 1019.2
20260502104002 35 247 3.0 7.0 0.00 0.00 0.00 75 1019.2
20260502103502 35 231 4.0 6.0 0.00 0.00 0.00 75 1019.1
20260502103010 35 229 3.0 5.0 0.00 0.00 0.00 74 1019.1
20260502102506 35 234 3.0 5.0 0.00 0.00 0.00 74 1019.1
20260502102005 35 205 3.0 5.0 0.00 0.00 0.00 74 1019.1
20260502101505 36 250 3.0 5.0 0.00 0.00 0.00 73 1019.0
20260502101003 36 250 2.0 5.0 0.00 0.00 0.00 73 1019.0
20260502100506 36 245 2.0 5.0 0.00 0.00 0.00 73 1019.0
20260502091518 38 243 3.0 5.0 0.00 0.00 0.00 68 1019.1
20260502091008 38 255 2.0 6.0 0.00 0.00 0.00 67 1019.1
20260502090506 38 259 3.0 6.0 0.00 0.00 0.00 67 1019.1
20260502071512 38 259 3.0 6.0 0.00 0.00 0.00 65 1019.2
20260502071006 38 261 3.0 6.0 0.00 0.00 0.00 67 1019.2
20260502070508 38 254 3.0 6.0 0.00 0.00 0.00 68 1019.2
20260502070027 38 255 3.0 5.0 0.00 0.00 0.00 69 1019.2
20260502065507 38 235 3.0 7.0 0.00 0.00 0.00 70 1019.3
20260502065007 38 228 3.0 7.0 0.00 0.00 0.00 71 1019.3
20260502064526 38 237 3.0 5.0 0.00 0.00 0.00 74 1019.3
20260502064005 38 244 3.0 5.0 0.00 0.00 0.00 74 1019.4
20260502063506 38 247 3.0 5.0 0.00 0.00 0.00 74 1019.4
20260502063016 38 221 2.0 4.0 0.00 0.00 0.00 74 1019.4
20260502062510 38 231 2.0 5.0 0.00 0.00 0.00 74 1019.3
20260502062006 38 242 2.0 5.0 0.00 0.00 0.00 73 1019.4
20260502061532 37 228 3.0 5.0 0.00 0.00 0.00 72 1019.4
20260502061007 37 243 3.0 5.0 0.00 0.00 0.00 72 1019.4
20260502060503 37 228 3.0 5.0 0.00 0.00 0.00 74 1019.4
20260502060006 37 228 3.0 5.0 0.00 0.00 0.00 74 1019.4
20260502055504 37 221 3.0 5.0 0.00 0.00 0.00 76 1019.4
20260502055004 37 236 3.0 4.0 0.00 0.00 0.00 76 1019.4
20260502054512 38 247 2.0 4.0 0.00 0.00 0.00 76 1019.4
20260502054007 38 230 2.0 4.0 0.00 0.00 0.00 76 1019.4
20260502053503 38 232 2.0 4.0 0.00 0.00 0.00 76 1019.4
20260502053010 38 254 2.0 3.0 0.00 0.00 0.00 75 1019.4
20260502052507 38 230 2.0 4.0 0.00 0.00 0.00 75 1019.4
20260502052003 38 217 2.0 4.0 0.00 0.00 0.00 74 1019.4
20260502051508 38 221 1.0 3.0 0.00 0.00 0.00 75 1019.5
20260502051002 38 221 2.0 3.0 0.00 0.00 0.00 74 1019.5
20260502050503 38 238 2.0 3.0 0.00 0.00 0.00 74 1019.5
20260502050007 38 232 2.0 3.0 0.00 0.00 0.00 74 1019.5
20260502045506 38 242 2.0 4.0 0.00 0.00 0.00 74 1019.4
20260502045004 39 250 2.0 4.0 0.00 0.00 0.00 73 1019.4
20260502044504 39 232 2.0 4.0 0.00 0.00 0.00 72 1019.4
20260502044003 39 238 2.0 4.0 0.00 0.00 0.00 71 1019.4
20260502043504 39 241 2.0 4.0 0.00 0.00 0.00 71 1019.4
20260502043024 39 231 2.0 4.0 0.00 0.00 0.00 70 1019.4
20260502042504 39 238 2.0 4.0 0.00 0.00 0.00 69 1019.3
20260502042006 39 252 2.0 4.0 0.00 0.00 0.00 69 1019.3
20260502041516 39 221 2.0 4.0 0.00 0.00 0.00 69 1019.2
20260502041003 39 232 3.0 5.0 0.00 0.00 0.00 68 1019.2
20260502040504 39 225 2.0 5.0 0.00 0.00 0.00 67 1019.3
20260502040013 40 232 3.0 4.0 0.00 0.00 0.00 65 1019.3
20260502035503 40 215 2.0 3.0 0.00 0.00 0.00 63 1019.2
20260502035005 40 238 2.0 3.0 0.00 0.00 0.00 62 1019.2
20260502034512 40 225 2.0 3.0 0.00 0.00 0.00 60 1019.3
20260502034007 41 225 2.0 3.0 0.00 0.00 0.00 60 1019.4
20260502033502 41 225 2.0 4.0 0.00 0.00 0.00 60 1019.4
20260502033017 41 236 2.0 4.0 0.00 0.00 0.00 59 1019.3
20260502032504 41 234 2.0 5.0 0.00 0.00 0.00 59 1019.4
20260502032003 41 236 2.0 5.0 0.00 0.00 0.00 59 1019.4
20260502031504 42 241 2.0 4.0 0.00 0.00 0.00 59 1019.4
20260502031004 42 265 2.0 4.0 0.00 0.00 0.00 57 1019.4
20260502030504 42 254 2.0 4.0 0.00 0.00 0.00 55 1019.4
20260502030009 42 265 2.0 6.0 0.00 0.00 0.00 53 1019.4
20260502025503 42 254 2.0 8.0 0.00 0.00 0.00 51 1019.4
20260502025003 42 257 3.0 8.0 0.00 0.00 0.00 51 1019.4
20260502024515 43 265 2.0 8.0 0.00 0.00 0.00 50 1019.4
20260502024002 43 268 3.0 7.0 0.00 0.00 0.00 49 1019.4
20260502023503 43 265 3.0 7.0 0.00 0.00 0.00 47 1019.4
20260502023014 43 273 3.0 7.0 0.00 0.00 0.00 46 1019.4
20260502022508 44 259 2.0 6.0 0.00 0.00 0.00 46 1019.4
20260502022006 44 273 2.0 6.0 0.00 0.00 0.00 46 1019.3
20260502021505 44 265 2.0 6.0 0.00 0.00 0.00 45 1019.3
20260502021001 45 280 3.0 6.0 0.00 0.00 0.00 44 1019.3
20260502020503 45 265 2.0 4.0 0.00 0.00 0.00 44 1019.2
20260502020010 45 265 2.0 4.0 0.00 0.00 0.00 43 1019.1
20260502015506 46 265 1.0 3.0 0.00 0.00 0.00 42 1019.1
20260502015006 46 286 1.0 3.0 0.00 0.00 0.00 40 1019.0
20260502014507 47 291 2.0 3.0 0.00 0.00 0.00 40 1018.9
20260502014003 47 291 1.0 3.0 0.00 0.00 0.00 39 1018.9
20260502013508 47 279 1.0 3.0 0.00 0.00 0.00 39 1018.9
20260502013025 48 273 1.0 3.0 0.00 0.00 0.00 39 1018.9
20260502012502 48 301 1.0 3.0 0.00 0.00 0.00 40 1018.9
20260502012006 49 286 1.0 7.0 0.00 0.00 0.00 38 1018.9
20260502011509 49 332 1.0 8.0 0.00 0.00 0.00 37 1018.9
20260502011003 49 298 2.0 8.0 0.00 0.00 0.00 36 1018.9
20260502010504 50 294 2.0 7.0 0.00 0.00 0.00 36 1018.8
20260502010015 50 319 2.0 9.0 0.00 0.00 0.00 36 1018.9
20260502005508 50 291 5.0 9.0 0.00 0.00 0.00 35 1018.9
20260502005007 50 282 4.0 11.0 0.00 0.00 0.00 35 1018.9
20260502004514 50 284 4.0 11.0 0.00 0.00 0.00 34 1018.9
20260502004007 51 267 5.0 11.0 0.00 0.00 0.00 35 1018.8
20260502003505 51 9 4.0 11.0 0.00 0.00 0.00 34 1018.8
20260502003018 51 306 5.0 10.0 0.00 0.00 0.00 36 1018.9
20260502002503 51 221 4.0 10.0 0.00 0.00 0.00 35 1018.8
20260502002007 51 311 3.0 9.0 0.00 0.00 0.00 34 1018.8
20260502001510 51 254 3.0 8.0 0.00 0.00 0.00 37 1018.9
20260502001002 51 325 2.0 9.0 0.00 0.00 0.00 36 1018.9
20260502000506 51 241 4.0 14.0 0.00 0.00 0.00 36 1018.7
20260502000014 51 298 7.0 14.0 0.00 0.00 0.00 34 1018.7
20260501235503 51 319 5.0 11.0 0.00 0.00 0.00 35 1018.7
20260501235007 52 313 4.0 11.0 0.00 0.00 0.00 33 1018.7
20260501234522 53 281 4.0 15.0 0.00 0.00 0.00 33 1018.7
20260501234003 53 243 5.0 15.0 0.00 0.00 0.00 33 1018.8
20260501233506 53 315 8.0 15.0 0.00 0.00 0.00 36 1018.8
20260501233022 54 261 6.0 15.0 0.00 0.00 0.00 33 1018.9
20260501232502 54 239 10.0 15.0 0.00 0.00 0.00 33 1018.8
20260501232003 54 294 6.0 10.0 0.00 0.00 0.00 33 1018.6
20260501231512 54 277 3.0 9.0 0.00 0.00 0.00 34 1018.7
20260501231004 53 51 4.0 10.0 0.00 0.00 0.00 34 1018.7
20260501230503 52 178 1.0 10.0 0.00 0.00 0.00 34 1018.8
20260501230016 52 270 6.0 10.0 0.00 0.00 0.00 36 1018.7
20260501225506 51 317 3.0 9.0 0.00 0.00 0.00 40 1018.9
20260501225005 51 321 3.0 10.0 0.00 0.00 0.00 36 1018.9
20260501224512 51 284 5.0 10.0 0.00 0.00 0.00 36 1019.0
20260501224005 51 257 3.0 9.0 0.00 0.00 0.00 36 1018.9
20260501223506 52 289 3.0 13.0 0.00 0.00 0.00 36 1018.9
20260501223011 53 292 4.0 16.0 0.00 0.00 0.00 34 1018.8
20260501222503 53 282 7.0 16.0 0.00 0.00 0.00 33 1018.9
20260501222007 54 269 6.0 14.0 0.00 0.00 0.00 33 1018.9
20260501221517 54 9 3.0 14.0 0.00 0.00 0.00 33 1019.0
20260501221002 54 298 6.0 13.0 0.00 0.00 0.00 37 1018.9
20260501220508 53 13 3.0 12.0 0.00 0.00 0.00 39 1018.8
20260501220020 53 331 7.0 15.0 0.00 0.00 0.00 33 1018.9
20260501215505 53 265 6.0 15.0 0.00 0.00 0.00 34 1018.9
20260501215006 54 254 8.0 15.0 0.00 0.00 0.00 35 1018.9
20260501214523 54 269 8.0 16.0 0.00 0.00 0.00 36 1018.7
20260501214007 54 302 6.0 16.0 0.00 0.00 0.00 34 1018.7
20260501213504 54 336 10.0 16.0 0.00 0.00 0.00 33 1018.7
20260501213021 53 252 4.0 14.0 0.00 0.00 0.00 36 1018.7
20260501212503 52 337 4.0 13.0 0.00 0.00 0.00 33 1018.9
20260501212007 51 323 4.0 13.0 0.00 0.00 0.00 34 1018.9
20260501211514 51 336 7.0 11.0 0.00 0.00 0.00 34 1019.1
20260501211007 52 277 2.0 11.0 0.00 0.00 0.00 37 1019.1
20260501210506 53 22 3.0 11.0 0.00 0.00 0.00 35 1019.0
20260501210013 53 53 3.0 14.0 0.00 0.00 0.00 35 1018.9
20260501205506 54 348 6.0 14.0 0.00 0.00 0.00 34 1019.1
20260501205012 54 277 5.0 11.0 0.00 0.00 0.00 35 1019.1
20260501204531 55 235 6.0 10.0 0.00 0.00 0.00 34 1019.1
20260501204007 54 341 4.0 10.0 0.00 0.00 0.00 38 1019.1
20260501203507 53 19 4.0 9.0 0.00 0.00 0.00 35 1019.2
20260501203011 53 212 4.0 10.0 0.00 0.00 0.00 36 1019.1
20260501202504 53 275 6.0 10.0 0.00 0.00 0.00 36 1019.2
20260501202005 53 271 3.0 13.0 0.00 0.00 0.00 41 1019.3
20260501201516 51 281 5.0 13.0 0.00 0.00 0.00 35 1019.3
20260501201010 52 47 4.0 11.0 0.00 0.00 0.00 36 1019.2
20260501200506 52 162 5.0 12.0 0.00 0.00 0.00 35 1019.3
20260501200024 53 238 4.0 12.0 0.00 0.00 0.00 37 1019.3
20260501195507 53 294 5.0 13.0 0.00 0.00 0.00 32 1019.2
20260501195004 54 344 7.0 18.0 0.00 0.00 0.00 33 1019.2
20260501194515 54 49 8.0 18.0 0.00 0.00 0.00 39 1019.2
20260501194011 53 57 3.0 15.0 0.00 0.00 0.00 43 1019.3
20260501193510 52 297 6.0 15.0 0.00 0.00 0.00 41 1019.3
20260501193020 51 286 4.0 14.0 0.00 0.00 0.00 40 1019.2
20260501192507 51 277 7.0 14.0 0.00 0.00 0.00 35 1019.2
20260501192006 53 40 6.0 14.0 0.00 0.00 0.00 33 1019.3
20260501191524 53 83 4.0 12.0 0.00 0.00 0.00 39 1019.2
20260501191007 52 32 3.0 10.0 0.00 0.00 0.00 42 1019.2
20260501190508 51 232 5.0 10.0 0.00 0.00 0.00 39 1019.3
20260501190023 51 111 2.0 14.0 0.00 0.00 0.00 35 1019.3
20260501185510 53 70 7.0 14.0 0.00 0.00 0.00 34 1019.2
20260501185011 53 29 5.0 13.0 0.00 0.00 0.00 42 1019.3
20260501184527 52 319 7.0 14.0 0.00 0.00 0.00 35 1019.3
20260501184009 52 270 8.0 14.0 0.00 0.00 0.00 38 1019.3
20260501183507 52 291 4.0 12.0 0.00 0.00 0.00 39 1019.2
20260501183016 50 309 4.0 11.0 0.00 0.00 0.00 43 1019.2
20260501182506 50 18 4.0 14.0 0.00 0.00 0.00 37 1019.2
20260501182006 51 34 5.0 18.0 0.00 0.00 0.00 37 1019.3
20260501181519 52 11 8.0 18.0 0.00 0.00 0.00 35 1019.2
20260501181012 51 111 3.0 12.0 0.00 0.00 0.00 37 1019.2
20260501180506 50 291 3.0 12.0 0.00 0.00 0.00 41 1019.3
20260501180019 49 323 6.0 14.0 0.00 0.00 0.00 38 1019.3
20260501175507 51 327 6.0 15.0 0.00 0.00 0.00 38 1019.4
20260501175012 51 51 4.0 15.0 0.00 0.00 0.00 36 1019.4
20260501174533 52 11 8.0 15.0 0.00 0.00 0.00 38 1019.3
20260501174008 51 309 4.0 13.0 0.00 0.00 0.00 41 1019.4
20260501173509 50 9 4.0 13.0 0.00 0.00 0.00 40 1019.4
20260501173018 50 341 6.0 13.0 0.00 0.00 0.00 42 1019.5
20260501172506 49 78 4.0 12.0 0.00 0.00 0.00 41 1019.4
20260501172007 50 344 4.0 12.0 0.00 0.00 0.00 41 1019.4
20260501171526 50 72 6.0 12.0 0.00 0.00 0.00 39 1019.4
20260501171008 49 296 5.0 14.0 0.00 0.00 0.00 40 1019.5
20260501170509 50 291 5.0 15.0 0.00 0.00 0.00 41 1019.4
20260501170027 50 80 5.0 16.0 0.00 0.00 0.00 39 1019.4
20260501165513 50 56 6.0 16.0 0.00 0.00 0.00 42 1019.4
20260501165008 51 21 6.0 14.0 0.00 0.00 0.00 45 1019.5
20260501164525 49 54 4.0 13.0 0.00 0.00 0.00 40 1019.4
20260501164011 48 321 4.0 13.0 0.00 0.00 0.00 45 1019.4
20260501163511 48 319 5.0 16.0 0.00 0.00 0.00 40 1019.5
20260501163019 49 342 7.0 14.0 0.00 0.00 0.00 44 1019.5
20260501162507 49 59 6.0 11.0 0.00 0.00 0.00 40 1019.4
20260501162008 49 20 4.0 14.0 0.00 0.00 0.00 41 1019.5
20260501161520 49 51 5.0 14.0 0.00 0.00 0.00 42 1019.4
20260501161010 49 43 4.0 10.0 0.00 0.00 0.00 42 1019.4
20260501160508 49 49 4.0 10.0 0.00 0.00 0.00 42 1019.5
20260501160028 49 51 4.0 11.0 0.00 0.00 0.00 45 1019.5
20260501155507 48 121 4.0 12.0 0.00 0.00 0.00 42 1019.5
20260501155012 48 46 5.0 12.0 0.00 0.00 0.00 41 1019.5
20260501154529 48 65 4.0 15.0 0.00 0.00 0.00 40 1019.6
20260501154010 49 13 5.0 15.0 0.00 0.00 0.00 41 1019.6
20260501153509 49 113 5.0 12.0 0.00 0.00 0.00 42 1019.5
20260501153028 48 84 7.0 15.0 0.00 0.00 0.00 42 1019.4
20260501152511 49 81 9.0 15.0 0.00 0.00 0.00 42 1019.4
20260501152010 49 86 3.0 11.0 0.00 0.00 0.00 47 1019.3
20260501151525 49 36 4.0 11.0 0.00 0.00 0.00 42 1019.3